Regional Weather Roundup
Issued by NWS

Home | Current Version | Previous Version | Graphics & Text | Print | Product List | Glossary On
Versions: 1 2 3 4 5 6 7 8 9 10 11 12 13 14 15 16 17 18 19 20 21 22 23 24 25 26 27 28 29 30 31 32 33 34 35 36 37 38 39 40 41 42 43 44 45 46 47 48 49 50
740
ASUS45 KPSR 240510
RWRAZ

ARIZONA REGIONAL HOURLY WEATHER ROUNDUP
NATIONAL WEATHER SERVICE TUCSON AZ
1000 PM MST FRI JUN 23 2017

NOTE: FAIR INDICATES FEW OR NO CLOUDS BELOW 12,000 FEET WITH NO
SIGNIFICANT WEATHER AND/OR OBSTRUCTIONS TO VISIBILITY.

AZZ001>003-036-240600-
NORTHWEST ARIZONA

CITY           SKY/WX    TMP DP  RH WIND       PRES   REMARKS
BULLHEAD CITY  CLEAR    109  43  10 SE25      29.64R HX 104
KINGMAN        CLEAR     91  37  15 SW14      29.95R
$$

AZZ004>008-015-016-018-240600-
NORTH CENTRAL ARIZONA

CITY           SKY/WX    TMP DP  RH WIND       PRES   REMARKS
GRAND CANYON   CLEAR     60  28  29 CALM      30.23R
PRESCOTT       CLEAR     83  32  16 SW9       30.10R
FLAGSTAFF      PTCLDY    68  29  23 CALM      30.26R
PAYSON         CLEAR     84  39  20 NW5       30.14R
PAGE           MOCLDY    87  20   8 CALM      30.00R
$$

AZZ009>014-017-240600-
NORTHEAST ARIZONA

CITY           SKY/WX    TMP DP  RH WIND       PRES   REMARKS
WINSLOW        PTCLDY    85  32  15 SW15      30.04R
SAINT JOHNS    CLEAR     74  22  14 S8        30.11R
WINDOW ROCK    CLEAR     70  28  21 CALM      30.22R
SHOW LOW       CLEAR     73  37  27 SW6       30.22R
$$

AZZ023-240600-
GREATER PHOENIX AREA

CITY           SKY/WX    TMP DP  RH WIND       PRES   REMARKS
PHOENIX        MOCLDY   104  45  13 W10       29.71R HX 100
BUCKEYE          N/A     93  46  20 SW9       29.73R
LUKE AFB       PTCLDY   100  48  17 SW10      29.71R
DEER VALLEY    PTCLDY   100  47  16 SW9       29.74R
SCOTTSDALE     PTCLDY   102  45  14 W9G16     29.77R
MESA-GATEWAY   PTCLDY    97  46  17 CALM      29.76R
$$

AZZ027-028-240600-
SOUTHWEST MARICOPA COUNTY AND PINAL COUNTY

CITY           SKY/WX    TMP DP  RH WIND       PRES   REMARKS
CASA GRANDE    PTCLDY    96  46  18 W9        29.77R
$$

AZZ503-504-507>509-240600-
SOUTHEAST ARIZONA

CITY           SKY/WX    TMP DP  RH WIND       PRES   REMARKS
TUCSON         CLEAR     98  41  14 NW8       29.89R
DAVIS-MONTHAN  PTCLDY    94  41  15 NW5       29.88R
NOGALES        PTCLDY    86  43  22 NE5       30.00R
SIERRA VISTA   CLEAR     85  32  14 W10       30.08R
DOUGLAS        PTCLDY    83  31  15 NW9       30.01R
SAFFORD        CLEAR     94  41  16 NW16      29.87R
$$

AZZ020-021-025-026-031-240600-
SOUTHWEST ARIZONA

CITY           SKY/WX    TMP DP  RH WIND       PRES   REMARKS
YUMA           MOCLDY    91  58  32 S6        29.70R
$$

CAZ031-033-041-043-047-048-061-240600-
SOUTHERN CALIFORNIA

CITY           SKY/WX    TMP DP  RH WIND       PRES   REMARKS
DOWNTOWN L.A.  CLOUDY    65  60  84 CALM      29.92R
L.A. AIRPORT   CLOUDY    63  61  93 W8        29.92S
SAN DIEGO      MOCLDY    67  61  81 NW8       29.93S
BURBANK        CLEAR     67  59  75 SE6       29.92R
ONTARIO        PTCLDY    70  59  68 NW8       29.92R
RIVERSIDE      PTCLDY    70  60  70 W8        29.92R
PALM SPRINGS   PTCLDY    99  54  22 NW14      29.73R
EL CENTRO NAS  PTCLDY    93  60  33 S6        29.68R
IMPERIAL       PTCLDY    93  68  43 SE6       29.66R
BLYTHE         PTCLDY    99  50  19 S12       29.68R
NEEDLES        PTCLDY   109  41  10 SW12      29.69R HX 103
$$

NVZ020-UTZ003-240600-
SOUTHERN NEVADA-UTAH

CITY           SKY/WX    TMP DP  RH WIND       PRES   REMARKS
LAS VEGAS      PTCLDY   101  25   7 W6        29.78R
SALT LAKE CITY CLEAR     74  39  28 SE3       30.14R
$$

NMZ009-TXZ055-240600-
NEW MEXICO-WEST TEXAS

CITY           SKY/WX    TMP DP  RH WIND       PRES   REMARKS
ALBUQUERQUE    CLEAR     76  54  46 E29G41    30.14R
EL PASO        PTCLDY    89  51  27 E17G29    30.01R
$$


........................KEY........................
SKY/WX - SKY CONDITION/WEATHER
TMP    - TEMPERATURE IN FAHRENHEIT
DP     - DEWPOINT IN FAHRENHEIT
RH     - RELATIVE HUMIDITY IN PERCENT
WIND   - DIRECTION AND SPEED IN MILES PER HOUR (MPH)
VRB    - VARIABLE WIND DIRECTION
PRES   - MEAN SEA LEVEL PRESSURE IN INCHES OF MERCURY
         F - FALLING PRESSURE   R - RISING PRESSURE
         S - STEADY PRESSURE
VSB    - VISIBILITY IN MILES
HX     - HEAT INDEX IN FAHRENHEIT
WCI    - WIND CHILL INDEX IN FAHRENHEIT
TC     - TEMPERATURE IN CELSIUS WHICH IS ALSO KNOWN AS
         TEMPERATURE IN CENTIGRADE
AFB    - AIR FORCE BASE
         LUKE AFB IS LUKE AIR FORCE BASE
         DAVIS-MONTHAN IS DAVIS-MONTHAN AIR FORCE BASE
NAS    - NAVAL AIR STATION
         EL CENTRO NAS IS EL CENTRO NAVAL AIR STATION
N/A    - NOT AVAILABLE





USA.gov is the U.S. government's official web portal to all federal, state and local government web resources and services.